30.06.2024;16:00;2
30.06.2024;15:00;3
30.06.2024;14:00;3
30.06.2024;13:00;3
30.06.2024;12:00;5
30.06.2024;11:00;7
30.06.2024;10:00;10
30.06.2024;09:00;13
30.06.2024;08:00;15
30.06.2024;07:00;16
30.06.2024;06:00;14
30.06.2024;05:00;13
30.06.2024;04:00;11
30.06.2024;03:00;26
30.06.2024;02:00;36
30.06.2024;01:00;36
29.06.2024;24:00;31
29.06.2024;23:00;25
29.06.2024;22:00;28
29.06.2024;21:00;33
29.06.2024;20:00;30
29.06.2024;19:00;26
29.06.2024;18:00;23
29.06.2024;17:00;21
29.06.2024;16:00;21
29.06.2024;15:00;23
29.06.2024;14:00;24
29.06.2024;13:00;25
29.06.2024;12:00;21
29.06.2024;11:00;18
29.06.2024;10:00;16
29.06.2024;09:00;11
29.06.2024;08:00;11
29.06.2024;07:00;15
29.06.2024;06:00;18
29.06.2024;05:00;16
29.06.2024;04:00;16
29.06.2024;03:00;17
29.06.2024;02:00;19
29.06.2024;01:00;16
28.06.2024;24:00;16
28.06.2024;23:00;12
28.06.2024;22:00;10
28.06.2024;21:00;7
28.06.2024;20:00;6
28.06.2024;19:00;6
28.06.2024;18:00;5
28.06.2024;17:00;9
28.06.2024;16:00;17
28.06.2024;15:00;22
28.06.2024;14:00;21
28.06.2024;13:00;19
28.06.2024;12:00;24
28.06.2024;11:00;19
28.06.2024;10:00;19
28.06.2024;09:00;18
28.06.2024;08:00;19
28.06.2024;07:00;23
28.06.2024;06:00;30
28.06.2024;05:00;32
28.06.2024;04:00;31
28.06.2024;03:00;29
28.06.2024;02:00;29
28.06.2024;01:00;31
27.06.2024;24:00;31
27.06.2024;23:00;23
27.06.2024;22:00;20
27.06.2024;21:00;18
27.06.2024;20:00;16
27.06.2024;19:00;16
27.06.2024;18:00;17
27.06.2024;17:00;15
27.06.2024;16:00;11
27.06.2024;15:00;16
27.06.2024;14:00;19
27.06.2024;13:00;22
27.06.2024;12:00;22
27.06.2024;11:00;23
27.06.2024;10:00;27
27.06.2024;09:00;31
27.06.2024;08:00;32
27.06.2024;07:00;29
27.06.2024;06:00;26
27.06.2024;05:00;25
27.06.2024;04:00;26
27.06.2024;03:00;25
27.06.2024;02:00;23
27.06.2024;01:00;16
26.06.2024;24:00;7
26.06.2024;23:00;16
26.06.2024;22:00;22
26.06.2024;21:00;27
26.06.2024;20:00;28
26.06.2024;19:00;24
26.06.2024;18:00;22
26.06.2024;17:00;24
26.06.2024;16:00;24
26.06.2024;15:00;23
26.06.2024;14:00;22
26.06.2024;13:00;20
26.06.2024;12:00;20
26.06.2024;11:00;19
26.06.2024;10:00;19
26.06.2024;09:00;18
26.06.2024;08:00;18
26.06.2024;07:00;19
26.06.2024;06:00;19
26.06.2024;05:00;20
26.06.2024;04:00;20
26.06.2024;03:00;17
26.06.2024;02:00;17
26.06.2024;01:00;17
25.06.2024;24:00;19
25.06.2024;23:00;20
25.06.2024;22:00;19
25.06.2024;21:00;18
25.06.2024;20:00;15
25.06.2024;19:00;15
25.06.2024;18:00;14
25.06.2024;17:00;14
25.06.2024;16:00;16
25.06.2024;15:00;17
25.06.2024;14:00;13
25.06.2024;13:00;20
25.06.2024;12:00;10
25.06.2024;11:00;14
25.06.2024;10:00;13
25.06.2024;09:00;15
25.06.2024;08:00;14
25.06.2024;07:00;14
25.06.2024;06:00;13
25.06.2024;05:00;14
25.06.2024;04:00;14
25.06.2024;03:00;15
25.06.2024;02:00;14
25.06.2024;01:00;14
